Regional Weather Roundup
Issued by NWS

Home | Current Version | Previous Version | Text Only | Print | Product List | Glossary Off
Versions: 1 2 3 4 5 6 7 8 9 10 11 12 13 14 15 16 17 18 19 20 21 22 23 24 25 26 27 28 29 30 31 32 33 34 35 36 37 38 39 40 41 42 43 44 45 46 47 48 49 50

000
ASUS43 KFSD 231410
RWRSD

WEATHER ROUNDUP FOR SOUTH DAKOTA
NATIONAL WEATHER SERVICE SIOUX FALLS SD
900 AM CDT SAT AUG 23 2014

NOTE: "FAIR" INDICATES FEW OR NO CLOUDS BELOW 12,000 FEET WITH NO
SIGNIFICANT WEATHER AND/OR OBSTRUCTIONS TO VISIBILITY.


SDZ001>005-009-010-012>017-231500-
NORTHWEST AND NORTH CENTRAL SOUTH DAKOTA

CITY           SKY/WX    TMP DP  RH WIND       PRES   REMARKS
BUFFALO          N/A     62  60  93 E17G25    29.86F
FAITH            N/A     62  61  96 E20       29.90S
MOBRIDGE       LGT RAIN  63  62  97 E18G26    29.89F
$$

SDZ012>016-024>037-041>051-057-063-072>074-231500-
SOUTHWEST AND SOUTH CENTRAL SOUTH DAKOTA

CITY           SKY/WX    TMP DP  RH WIND       PRES   REMARKS
RAPID CTY ARPT CLOUDY    65  61  87 CALM      29.89F
PIERRE         CLOUDY    68  68 100 E12       29.83F
ELLSWORTH AFB  CLOUDY    64  62  92 E2        29.89F
PHILIP         HVY RAIN  66  65  96 NW8       29.83F VSB 3/4
PINE RIDGE     CLOUDY    64  63  96 CALM      29.88F
WINNER         CLOUDY    70  66  87 SE16      29.85F
$$

SDZ004>011-016>023-039-040-231500-
NORTHEAST SOUTH DAKOTA

CITY           SKY/WX    TMP DP  RH WIND       PRES   REMARKS
ABERDEEN       LGT RAIN  64  64 100 NE14      29.92F
WATERTOWN      CLOUDY    68  66  93 E12G20    29.90F
SISSETON         N/A     69  69 100 E8        29.95F
$$

SDZ017-020-022-023-036>040-048>070-231500-
SOUTHEAST SOUTH DAKOTA

CITY           SKY/WX    TMP DP  RH WIND       PRES   REMARKS
SIOUX FALLS    CLOUDY    71  68  90 E10       29.91R
HURON          CLOUDY    71  67  87 SE8       29.88R
CHAMBERLAIN    CLOUDY    68  67  96 SE14G21   29.86S
MITCHELL       LGT RAIN  70  68  93 SE8       29.89R
YANKTON        PTSUNNY   70  68  94 SE7       29.90R
$$

ABBREVIATIONS USED IN REMARKS
   TC - TEMPERATURE IN CELSIUS
  WCI - WIND CHILL INDEX
   HX - HEAT INDEX
  VSB - VISIBILITY




USA.gov is the U.S. government's official web portal to all federal, state and local government web resources and services.